Home   Weather   Fairfield   Past weeks
Flag for USA

Past Weather in Fairfield, Georgia, USA — Yesterday and Last 2 Weeks

Now
64 °F

Sunny.


Feels Like: 64 °F
Forecast: 63 / 37 °F
Wind: 7 mph from Northwest

Location: Fulton County Airport-Brown Field

Current Time: Dec 5, 2019 at 3:33:28 pm

Latest Report: Dec 5, 2019 at 2:53 pm


Visibility: 10 mi

Pressure: 30.10 "Hg

Humidity: 23%

Dew Point: 25 °F

Location of FairfieldLocation

Past Weather in Fairfield — Graph

°F

Fairfield Temperature Yesterday

Maximum temperature yesterday: 59 °F (at 1:53 pm)
Minimum temperature yesterday: 32 °F (at 3:53 am)
Average temperature yesterday: 46 °F

High & Low Weather Summary for the Past Weeks

 TemperatureHumidityPressure
High74 °F (Nov 27, 1:53 pm)100% (Nov 21, 7:53 am)30.31 "Hg (Nov 21, 7:53 am)
Low32 °F (Nov 25, 5:21 am)14% (Nov 27, 3:53 pm)29.58 "Hg (Dec 1, 2:53 pm)
Average52 °F64%29.99 "Hg
* Reported Nov 20 1:53 pm — Dec 5 1:53 pm, Fairfield. Weather by CustomWeather, © 2019

Note: Actual official high and low records may vary slightly from our data, if they occured in-between our weather recording intervals... More about our weather records

Fairfield Weather History for the Previous 24 Hours

Scroll right to see more
 ConditionsComfort  
Time TempWeatherWind HumidityBarometerVisibility
1:53 pm
Thu, Dec 5
63 °FSunny.8 mph24%30.11 "Hg10 mi
12:53 pm62 °FSunny.7 mph26%30.13 "Hg10 mi
11:53 am59 °FSunny.6 mph32%30.16 "Hg10 mi
10:53 am56 °FSunny.7 mph39%30.16 "Hg10 mi
9:53 am51 °FSunny.5 mph48%30.16 "Hg10 mi
8:53 am46 °FSunny.7 mph61%30.13 "Hg10 mi
7:53 am41 °FSunny.5 mph74%30.11 "Hg10 mi
6:53 am36 °FClear.3 mph85%30.07 "Hg10 mi
5:53 am35 °FClear.No wind85%30.05 "Hg10 mi
4:53 am38 °FClear.No wind76%30.03 "Hg10 mi
3:53 am41 °FClear.3 mph67%30.03 "Hg10 mi
2:53 am46 °FClear.No wind54%30.00 "Hg10 mi
1:53 am47 °FClear.7 mph54%30.00 "Hg10 mi
12:53 am48 °FClear.6 mph52%29.99 "Hg10 mi
11:53 pm
Wed, Dec 4
47 °FClear.6 mph54%29.99 "Hg10 mi
10:53 pm47 °FClear.3 mph54%29.98 "Hg10 mi
9:53 pm47 °FClear.3 mph52%29.97 "Hg10 mi
8:53 pm49 °FClear.6 mph48%29.96 "Hg10 mi
7:53 pm50 °FClear.3 mph46%29.96 "Hg10 mi
6:53 pm53 °FClear.3 mph41%29.94 "Hg10 mi
5:53 pm55 °FClear.3 mph39%29.92 "Hg10 mi
4:53 pm57 °FSunny.9 mph37%29.91 "Hg10 mi
3:53 pm58 °FSunny.12 mph35%29.89 "Hg10 mi
Weather by CustomWeather, © 2019

See weather overview

Advertising